Regional Weather Roundup
Issued by NWS

Home | Current Version | Previous Version | Graphics & Text | Print | Product List | Glossary On
Versions: 1 2 3 4 5 6 7 8 9 10 11 12 13 14 15 16 17 18 19 20 21 22 23 24 25 26 27 28 29 30 31 32 33 34 35 36 37 38 39 40 41 42 43 44 45 46 47 48 49 50
050
ASUS45 KBOI 061810
RWRID

IDAHO REGIONAL WEATHER ROUNDUP
NATIONAL WEATHER SERVICE BOISE ID
1100 AM MST SAT FEB 06 2016

NOTE: "FAIR" INDICATES FEW OR NO CLOUDS BELOW 12000 FEET
WITH NO SIGNIFICANT WEATHER AND/OR OBSTRUCTIONS TO VISIBILITY

IDZ012-014-061900-
SOUTHWEST IDAHO


CITY           SKY/WX    TMP DP  RH WIND       PRES   REMARKS
BOISE          CLOUDY    39  30  70 N5        30.46R
CALDWELL       CLOUDY    36  27  69 S7        30.50R WCI  30
MOUNTAIN HOME  CLOUDY    34  34  99 E17       30.47R WCI  23
$$

IDZ016-017-061900-
SOUTHCENTRAL IDAHO


CITY           SKY/WX    TMP DP  RH WIND       PRES   REMARKS
BURLEY         CLOUDY    38  26  62 SW9       30.44R WCI  31
JEROME         CLOUDY    27  21  78 NE10      30.46R WCI  17
TWIN FALLS     CLOUDY    30  25  81 NE6       30.45R WCI  24
$$

IDZ019>023-061900-
SOUTHEAST IDAHO


CITY           SKY/WX    TMP DP  RH WIND       PRES   REMARKS
IDAHO FALLS    CLOUDY    20  16  84 CALM      30.45R
POCATELLO      CLOUDY    28  22  78 NW7       30.46R WCI  21
REXBURG        CLOUDY    24  20  84 CALM      30.43S
$$

IDZ006-010-011-018-031-032-061900-
CENTRAL IDAHO MOUNTAINS


CITY           SKY/WX    TMP DP  RH WIND       PRES   REMARKS
MCCALL         CLOUDY    32  22  66 CALM      30.37R
HAILEY         PTSUNNY   25  18  74 NW5       30.44R WCI  19
STANLEY          N/A     37  19  48 VRB3      30.37R
SALMON         CLOUDY    21  16  79 CALM      30.33S
CHALLIS        CLOUDY    21  15  78 CALM      30.32R
$$

IDZ002-004-006-007-026-061900-
NORTHERN IDAHO


CITY           SKY/WX    TMP DP  RH WIND       PRES   REMARKS
LEWISTON       CLOUDY    48  31  51 CALM      30.40R
LOWELL           N/A     38  36  92 CALM      30.44S
COEUR D`ALENE  CLOUDY    37  30  75 SW16      30.31R WCI  28
MULLAN PASS    MIX PCPN  23  21  92 SW12G24   30.20R WCI  12
$$




USA.gov is the U.S. government's official web portal to all federal, state and local government web resources and services.